STARLINK-2740 (48690 NORAD) Tracking and Keplerian Element Data

This shows tracking and keplerian element data for the satellite.

Feedback or suggestion? Click here.




ElementValue
Catalog48690
NameSTARLINK-2740
Epoch Orbit369
Epoch Day214.91667824
Epoch Year2021
RAAN85.9945
Inclination53.0475
Eccentricity0.0001962
Argument of Perigee29.2043
Mean Anonmoly56.9146
Mean Motion15.73219584
Decay Rate8.04E-06
L11 48690U 21044BE 21214.91667824 .00000804 00000-0 10147-4 0 9990
L22 48690 53.0475 85.9945 0001962 29.2043 56.9146 15.73219584 3695

Live tracking and technical data element details for STARLINK-2740 (NORAD 48690). STARLINK-2740 can be tracked NOW for your location showing map with azimuth and elevation plus other details from your city location.

Track the satellite on the map from your city or location and see movement details for azimuth, elevation, latitude, longitude, range, height, and movement on the map or in text.







IsCatalogInMostPopularTable: catalog: 48690, numindb: 14
Update: records affected: 1



GetName: 48690 STARLINK-2740

Hit Count: updated at: Tue, 03 Aug 2021 23:32:54 GMT